Regional Weather Roundup
Issued by NWS Sterling, VA

Home | Current Version | Previous Version | Text Only | Print | Product List | Glossary Off
Versions: 1 2 3 4 5 6 7 8 9 10 11 12 13 14 15 16 17 18 19 20 21 22 23 24 25 26 27 28 29 30 31 32 33 34 35 36 37 38 39 40 41 42 43 44 45 46 47 48 49 50

000
ASUS41 KLWX 130010
RWRLWX

REGIONAL WEATHER ROUNDUP
NATIONAL WEATHER SERVICE BALTIMORE MD/WASHINGTON DC
700 PM EST FRI FEB 12 2016

Note: "FAIR" indicates few or no clouds below 12,000 feet
with no significant weather and/or obstructions to visibility.
 TC=TEMPERATURE CELSIUS

 * =Non NWS site. Station does not report precipitation (e.g. rain,
    snow, etc.), thunder, or fog.

DCZ001-MDZ009-015-VAZ040>042-051-053>054-130100-
WASHINGTON METRO

CITY           SKY/WX    TMP DP  RH WIND       PRES   REMARKS
WASHINGTON NAT MOCLDY    28  12  51 SE6       30.02S
DULLES         CLOUDY    27   7  42 CALM      29.99S
ANDREWS AFB    CLOUDY    26  13  58 S6        29.99S
FT BELVOIR     MOCLDY    28   9  45 SE1       30.01R
QUANTICO       FAIR      32  11  41 SW6       30.03R
COLLEGE PARK*  FAIR      30  14  51 N5        30.01S
LEESBURG*      CLOUDY    30  14  51 CALM      30.00S
MANASSAS*      CLEAR     28  12  50 CALM      30.00R
GAITHERSBURG*  CLEAR     25   9  50 CALM      30.02S

$$

MDZ006>007-011-014-130100-
BALTIMORE METRO

CITY           SKY/WX    TMP DP  RH WIND       PRES   REMARKS
BWI AIRPORT    CLOUDY    25  14  63 NE7       30.02S
MD SCIENCE CTR   N/A     25  15  66 MISG      30.03R
MARTIN STATE   PTCLDY    25  19  80 CALM      30.06
ANNAPOLIS      CLOUDY    27  18  69 SE9       30.03R WCI  18
FORT MEADE*    CLOUDY    27  16  63 NE3       30.04S

$$

MDZ012-015-019>023-130100-
MARYLAND EASTERN SHORE

CITY           SKY/WX    TMP DP  RH WIND       PRES   REMARKS
OCEAN CITY     FLURRIES  25  17  72 SW6       30.03F
SALISBURY      CLOUDY    26  14  60 W6        30.03S
BAY BRIDGE AP* FLURRIES  27  18  69 CALM      30.03S
CAMBRIDGE*     CLOUDY    27  14  59 S3        30.02F

$$

MDZ017>025-130100-
SOUTHERN MARYLAND

CITY           SKY/WX    TMP DP  RH WIND       PRES   REMARKS
PATUXENT RIVER CLOUDY    27  17  66 SE3       30.01F
ST INIGOES     CLOUDY    28  19  69 S7        30.01F
LEONARDTOWN*   CLOUDY    28  16  59 MISG        N/A

$$

MDZ003>005-130100-
NORTH CENTRAL MARYLAND

CITY           SKY/WX    TMP DP  RH WIND       PRES   REMARKS
FREDERICK*     CLOUDY    25  18  74 CALM      30.03R
HAGERSTOWN APT LGT SNOW  22  18  85 CALM      29.97S FOG
WESTMINSTER*   CLOUDY    23  16  74 CALM      29.96F

$$

MDZ501>502-130100-
WESTERN MARYLAND

CITY           SKY/WX    TMP DP  RH WIND       PRES   REMARKS
OAKLAND*       FOG       12   9  85 W8        29.83S VSB 1   WCI   1
CUMBERLAND*    CLOUDY    27  21  80 CALM      30.03R

$$

VAZ025>031-130100-
SHENANDOAH VALLEY

CITY           SKY/WX    TMP DP  RH WIND       PRES   REMARKS
WINCHESTER*    LGT SNOW  27  21  80 NW3       29.97S
FRONT ROYAL*   CLOUDY    28  18  64 NW5       29.96R
LURAY*         CLOUDY    28  16  59 N10       29.95R WCI  19
NEW MARKET*    CLOUDY    30  16  55 N8        29.94R WCI  23
STAUNTON*      CLOUDY    34  19  55 SW8       29.93R WCI  27
WAYNESBORO*    CLOUDY    29  16  58 SW5       29.91R

$$

WVZ021-048>050-054>055-130100-
EASTERN WEST VIRGINIA PANHANDLE

CITY           SKY/WX    TMP DP  RH WIND       PRES   REMARKS
MARTINSBURG    LGT SNOW  23  20  88 CALM      29.99R VSB 1
PETERSBURG*    CLOUDY    26  21  83 CALM      29.97S

$$

VAZ036>039-050-130100-
CENTRAL FOOTHILLS

CITY           SKY/WX    TMP DP  RH WIND       PRES   REMARKS
CHARLOTTESVILL CLOUDY    29  14  53 S7        29.95R
CULPEPER*      CLOUDY    26   9  50 CALM      30.00R
ORANGE*        CLOUDY    30  12  47 SE3       29.99R
GORDONSVILLE*  CLOUDY    29  15  55 S6        29.97R
WARRENTON*     FAIR      28  15  58 CALM      29.99R

$$

VAZ055>057-130100-
NORTH AND CENTRAL PIEDMONT

CITY           SKY/WX    TMP DP  RH WIND       PRES   REMARKS
FREDERICKSBRG* MOCLDY    29  14  52 SE3       30.00S
STAFFORD*      FAIR      28   9  44 S3        30.04R

$$

NCZ024-NYZ072-PAZ021-071-VAZ022-071-130100-
OTHER REGIONAL OBSERVATIONS

CITY           SKY/WX    TMP DP  RH WIND       PRES   REMARKS
NEW YORK CITY  CLOUDY    24   4  42 VRB5      30.01F
PHILADELPHIA   LGT SNOW  22  14  71 S5        30.04S
PITTSBURGH     FLURRIES  19  12  74 SW10      29.95R WCI   7
ROANOKE        CLOUDY    31  19  61 N3        29.98S
RICHMOND       MOCLDY    27  18  69 S9        30.01F WCI  18
RALEIGH        MOCLDY    31  21  66 W3        30.04R

$$

ANZ530>537-130100-
MARINE OBSERVATIONS

STATION/POSITION TIME  TEMP    WIND        PRES
                       AIR SEA DIR/SP/G
                 (UTC) (F)     (DEG/KT/KT) (MB)
THOMAS PT LIGHT  0000   26 36  170/  7/  8 1017.6R
BALT KEY BRIDGE  2300   25                 1017.0F
COVE POINT       2300   26                 1017.6S
LEWISETTA        2300   27 36              1016.6F
SOLOMONS ISLAND  2300   28 39                N/A
PINEY POINT      2300          220/  8/ 11   N/A

$$




USA.gov is the U.S. government's official web portal to all federal, state and local government web resources and services.